Weather History for Waukesha, WI

Change the Weather History Date:

Sunday, January 8, 2012

  Actual Average Record
Temperature  
Mean Temperature 26 °F -  
Max Temperature 37 °F 21 °F 68 °F (2013)
Min Temperature 15 °F 5 °F -12 °F (1976)
Degree Days  
Heating Degree Days 39    
Moisture  
Dew Point 21 °F    
Average Humidity 78    
Maximum Humidity 93    
Minimum Humidity 52    
Precipitation  
Precipitation 0.00 in - - ()
Sea Level Pressure  
Sea Level Pressure 30.27 in    
Wind  
Wind Speed 3 mph (SW)    
Max Wind Speed 14 mph    
Max Gust Speed -    
Visibility 10 miles    
Events      
Averages and records for this station are not official NWS values.
T = Trace of Precipitation, MM = Missing Value Source: NWS Daily Summary

Daily Weather History Graph

Daily Weather History Graph

Search for Another Location

Airport:

Trip Planner

Search our weather history database for the weather conditions in past years. The results will help you decide how hot, cold, wet, or windy it might be!

Date:

Astronomy

Jan. 08, 2012 Rise Set
Actual Time 7:24 AM CST 4:35 PM CST
Civil Twilight 6:52 AM CST 5:07 PM CST
Nautical Twilight 6:16 AM CST 5:42 PM CST
Astronomical Twilight 5:42 AM CST 6:16 PM CST
Moon 4:18 PM CST (1/8) 6:42 AM CST (1/8)
Length of Visible Light 10h 15m
Length of Day
9h 11m
Full, 100% of the Moon is Illuminated
Jan 8
Full
Jan 9
Full
Jan 16
Last Quarter
Jan 23
New
Jan 30
First Quarter

Hourly Weather History & Observations

Time (CST) Temp. Windchill Dew Point Humidity Pressure Visibility Wind Dir Wind Speed Gust Speed Precip Events Conditions
12:15 AM 26.6 °F 22.6 °F 21.2 °F 80% 30.24 in 10.0 mi WNW 3.5 mph - N/A   Clear
12:35 AM 24.8 °F 20.5 °F 21.2 °F 86% 30.25 in 10.0 mi WNW 3.5 mph - N/A   Clear
12:55 AM 26.6 °F 22.6 °F 21.2 °F 80% 30.24 in 10.0 mi West 3.5 mph - N/A   Clear
1:15 AM 24.8 °F 20.5 °F 19.4 °F 80% 30.25 in 10.0 mi West 3.5 mph - N/A   Clear
1:35 AM 23.0 °F - 19.4 °F 86% 30.25 in 10.0 mi Calm Calm - N/A   Clear
1:55 AM 23.0 °F - 19.4 °F 86% 30.26 in 10.0 mi Calm Calm - N/A   Clear
2:15 AM 23.0 °F - 19.4 °F 86% 30.27 in 10.0 mi Calm Calm - N/A   Clear
2:35 AM 21.2 °F - 17.6 °F 86% 30.27 in 10.0 mi Calm Calm - N/A   Clear
3:15 AM 19.4 °F - 17.6 °F 93% 30.27 in 10.0 mi Calm Calm - N/A   Clear
3:55 AM 19.4 °F - 17.6 °F 93% 30.27 in 10.0 mi Calm Calm - N/A   Clear
4:15 AM 19.4 °F - 17.6 °F 93% 30.27 in 10.0 mi Calm Calm - N/A   Clear
5:45 AM 17.6 °F - 15.8 °F 93% 30.29 in 10.0 mi Calm Calm - N/A   Clear
6:45 AM 15.8 °F - 14.0 °F 93% 30.30 in 10.0 mi Calm Calm - N/A   Clear
7:45 AM 17.6 °F - 15.8 °F 93% 30.30 in 10.0 mi Calm Calm - N/A   Clear
8:45 AM 24.8 °F - 21.2 °F 86% 30.32 in 10.0 mi Calm Calm - N/A   Clear
9:45 AM 30.2 °F 24.3 °F 21.2 °F 69% 30.33 in 10.0 mi SSW 5.8 mph - N/A   Clear
10:45 AM 33.8 °F 27.7 °F 21.2 °F 60% 30.33 in 10.0 mi South 6.9 mph - N/A   Clear
11:45 AM 35.6 °F 29.2 °F 21.2 °F 56% 30.31 in 10.0 mi SW 8.1 mph - N/A   Clear
12:45 PM 37.4 °F 30.8 °F 21.2 °F 52% 30.30 in 10.0 mi SW 9.2 mph - N/A   Clear
1:45 PM 37.4 °F 29.8 °F 21.2 °F 52% 30.28 in 10.0 mi SW 11.5 mph - N/A   Clear
2:45 PM 35.6 °F 26.6 °F 21.2 °F 56% 30.28 in 10.0 mi WSW 13.8 mph - N/A   Clear
3:45 PM 35.6 °F 28.6 °F 23.0 °F 60% 30.28 in 10.0 mi WSW 9.2 mph - N/A   Clear
4:45 PM 32.0 °F 27.5 °F 21.2 °F 64% 30.29 in 10.0 mi SW 4.6 mph - N/A   Clear
5:45 PM 30.2 °F 25.4 °F 21.2 °F 69% 30.28 in 10.0 mi SW 4.6 mph - N/A   Clear
6:45 PM 28.4 °F 23.3 °F 21.2 °F 74% 30.28 in 10.0 mi SW 4.6 mph - N/A   Clear
7:45 PM 28.4 °F 23.3 °F 21.2 °F 74% 30.27 in 10.0 mi SW 4.6 mph - N/A   Clear
8:15 PM 28.4 °F 24.6 °F 21.2 °F 74% 30.27 in 10.0 mi SSW 3.5 mph - N/A   Clear
8:35 PM 28.4 °F 23.3 °F 21.2 °F 74% 30.26 in 10.0 mi SSW 4.6 mph - N/A   Clear
8:45 PM 26.6 °F 21.2 °F 21.2 °F 80% 30.26 in 10.0 mi SSW 4.6 mph - N/A   Clear
8:55 PM 26.6 °F 21.2 °F 21.2 °F 80% 30.26 in 10.0 mi SW 4.6 mph - N/A   Clear
9:15 PM 28.4 °F 24.6 °F 23.0 °F 80% 30.26 in 10.0 mi SW 3.5 mph - N/A   Clear
9:35 PM 28.4 °F 22.2 °F 23.0 °F 80% 30.25 in 10.0 mi SSW 5.8 mph - N/A   Clear
9:55 PM 26.6 °F 20.0 °F 23.0 °F 86% 30.25 in 10.0 mi SW 5.8 mph - N/A   Clear
10:15 PM 28.4 °F 23.3 °F 23.0 °F 80% 30.25 in 10.0 mi SW 4.6 mph - N/A   Clear
10:35 PM 28.4 °F 23.3 °F 23.0 °F 80% 30.25 in 10.0 mi SW 4.6 mph - N/A   Clear
11:15 PM 26.6 °F 22.6 °F 23.0 °F 86% 30.24 in 10.0 mi WSW 3.5 mph - N/A   Clear
11:35 PM 24.8 °F 17.9 °F 23.0 °F 93% 30.23 in 10.0 mi WSW 5.8 mph - N/A   Clear
11:55 PM 28.4 °F 22.2 °F 23.0 °F 80% 30.22 in 10.0 mi SW 5.8 mph - N/A   Clear